Other Public Products
Issued by NWS Grand Forks, ND

Home | Current Version | Previous Version | Text Only | Print | Product List | Glossary On
Versions: 1 2 3 4 5 6 7 8 9 10 11 12 13 14 15 16 17 18 19 20 21 22 23 24 25 26 27 28 29 30 31 32 33 34 35 36 37 38 39 40 41 42 43 44 45 46 47 48 49 50
000
FPUS83 KFGF 230031
OPUFGF
PRAIRIE TO PINES WEATHER ROUNDUP
NATIONAL WEATHER SERVICE EASTERN NORTH DAKOTA/GRAND FORKS ND
600 PM CST WED FEB 22 2017

 **SATELLITE DATA USED TO AUGMENT SKY COVER AT AUTOMATED STATIONS**
 *****  WEATHER ACROSS EASTERN NORTH DAKOTA  *****

CITY           SKY/WX    TMP DP  RH WIND       PRES   REMARKS
GRAND FORKS    MOCLDY    34  25  69 N10       29.87R
6HR MIN TEMP:  34; 6HR MAX TEMP:  36;

GRAND FORKS AF CLEAR     33  27  79 N10       29.88R WCI  24
GRAND CITY NWS NOT AVBL
BUXTON         NOT AVBL
DEVILS LAKE    FAIR      31  26  82 NW10      29.91R WCI  22
6HR MIN TEMP:  31; 6HR MAX TEMP:  32;

FARGO          CLOUDY    34  29  82 N15       29.84R WCI  24
6HR MIN TEMP:  33; 6HR MAX TEMP:  36; 6HR PCP:  0.15;

WAHPETON ARPT  CLOUDY    32  30  93 N16G25    29.82R WCI  21
$$

 *****  WEATHER ACROSS CENTRAL AND WESTERN NORTH DAKOTA  *****

CITY           SKY/WX    TMP DP  RH WIND       PRES   REMARKS
JAMESTOWN      CLOUDY    31  26  82 N18       29.87R WCI  19
6HR MIN TEMP:  31; 6HR MAX TEMP:  33; 6HR PCP:  0.02;

BISMARCK       CLOUDY    34  30  85 NE8       29.92R
6HR MIN TEMP:  34; 6HR MAX TEMP:  35; 6HR PCP:  0.04;

MINOT          FAIR      33  25  72 NW9       29.94R
6HR MIN TEMP:  33; 6HR MAX TEMP:  36;

MINOT AFB      FAIR      31  26  79 NW9       29.93R WCI  23
6HR MIN TEMP:  31; 6HR MAX TEMP:  33;

GARRISON         N/A     31  27  85 NW8       29.92R WCI  23
6HR MIN TEMP:  30; 6HR MAX TEMP:  32;

WILLISTON      CLOUDY    32  26  78 N7        29.97R
6HR MIN TEMP:  31; 6HR MAX TEMP:  34;

DICKINSON      CLOUDY    29  25  85 N9        29.90R WCI  20
6HR MIN TEMP:  29; 6HR MAX TEMP:  30; 6HR PCP: TRACE;

HETTINGER      CLOUDY    31  27  85 N10       29.92R WCI  22
6HR MIN TEMP:  31; 6HR MAX TEMP:  34; 6HR PCP: TRACE;

$$

 *****  OTHER OBSERVATIONS NORTHEAST NORTH DAKOTA  *****

CITY           SKY/WX    TMP DP  RH WIND       PRES   REMARKS
WALHALLA       NOT AVBL
LANGDON        NOT AVBL
CAVALIER         N/A     32  27  80 N9        29.90R WCI  24
GRAFTON        FAIR      32  27  80 N12       29.91R WCI  23
CANDO          NOT AVBL
FORT TOTTEN      N/A     32  28  86 NW5       29.95S
ROLLA          CLOUDY    27  25  93 NW8       29.91R WCI  18
RUGBY            N/A     27  27 100 NW10      29.93R WCI  17
 ***** THE ABOVE OBSERVATIONS ARE NON NWS ARE NOT QUALITY
        CONTROLLED AND MAY MIS-REPORT RAIN FOR SNOW...
$$

 *****  OTHER OBSERVATIONS SOUTHEAST NORTH DAKOTA *****

CITY           SKY/WX    TMP DP  RH WIND       PRES   REMARKS
COOPERSTOWN    FAIR      30  27  86 N13       29.89R WCI  20
VALLEY CITY    CLOUDY    32  32 100 N17       29.89R WCI  21
OAKES          NOT AVBL
GWINNER        FAIR      32  32 100 N14       29.86R WCI  22
SHEYENNE NWR     N/A     32  28  85 N12       29.95S WCI  23
BUFFALO        NOT AVBL
WYNDMERE         N/A     34  32  93 N16         N/A  WCI  23
 ***** THE ABOVE OBSERVATIONS ARE NON NWS ARE NOT QUALITY
       CONTROLLED AND MAY MIS-REPORT RAIN FOR SNOW...
$$

  *****  WEATHER ACROSS NORTHERN MINNESOTA  *****

CITY           SKY/WX    TMP DP  RH WIND       PRES   REMARKS
FLAG ISLAND    MOCLDY    30  23  74 NW13      29.81R WCI  20
WARROAD        FAIR      32  25  74 NW8       29.83R WCI  25
ROSEAU         FAIR      30  25  80 NW12      29.83R WCI  21
HALLOCK        FAIR      32  28  86 N15       29.88R WCI  22
THF RVR FALLS  CLOUDY    32  24  72 N14       29.84R WCI  22
6HR MIN TEMP:  32; 6HR MAX TEMP:  33; 6HR PCP: TRACE;

HALSTAD          N/A     33  28  85 N15         N/A  WCI  22
FOSSTON        CLOUDY    30  27  86 N15G22    29.82R WCI  19
BAUDETTE       FAIR      30  22  72 NW10      29.78R WCI  21
6HR MIN TEMP:  30; 6HR MAX TEMP:  33; 6HR PCP: TRACE;

WASKISH        FAIR      30  25  80 N7        29.80R WCI  23
CROOKSTON      CLOUDY    34  30  86 N10       29.87R
$$
  *****  WEATHER ACROSS CENTRAL AND WEST MINNESOTA  *****

CITY           SKY/WX    TMP DP  RH WIND       PRES   REMARKS
BEMIDJI        CLOUDY    30  27  89 N13       29.78R WCI  20
PARK RAPIDS    LGT SNOW  33  28  81 N12       29.75R WCI  24
6HR MIN TEMP:  34; 6HR MAX TEMP:  39; 6HR PCP:  0.22;

WADENA         LGT SNOW  32  30  93 N9        29.74R WCI  24
DETROIT LAKES  CLOUDY    32  32 100 N13G21    29.79R WCI  22
MOORHEAD       LGT RAIN  32  28  86 N17       29.84R WCI  21
FERGUS FALLS   CLOUDY    34  34 100 N10G17    29.82R
ELBOW LAKE     DRIZZLE   33  33  98 N13G18    29.77R WCI  24
MORRIS MN      CLOUDY    34  34 100 NW16      29.75R WCI  23
STAPLES        LGT SNOW  30  30 100 N10       29.73R WCI  21
WHEATON        LGT SNOW  34  30  86 NW14G22   29.82R WCI  24
$$
  *****  WEATHER ELSEWHERE ACROSS MINNESOTA  *****

CITY           SKY/WX    TMP DP  RH WIND       PRES   REMARKS
DULUTH         CLOUDY    37  35  92 NW5       29.65R
6HR MIN TEMP:  37; 6HR MAX TEMP:  46; 6HR PCP:  0.08;

INTRNTL FALLS  MOCLDY    32  24  72 N8        29.76R WCI  25
6HR MIN TEMP:  32; 6HR MAX TEMP:  34; 6HR PCP:  0.05;

ELY            MIX PCPN  34  30  86 CALM      29.68R
CLOQUET        DRIZZLE   37  36  93 W5        29.65R
BRAINERD       LGT SNOW  33  32  96 N13       29.71R FOG     WCI  24
6HR MIN TEMP:  32; 6HR MAX TEMP:  43; 6HR PCP:  0.12;

HIBBING        LGT SNOW  32  32 100 NW9       29.69R FOG     WCI  24
6HR MIN TEMP:  32; 6HR MAX TEMP:  40; 6HR PCP:  0.12;

ALEXANDRIA     LGT SNOW  33  32  96 N9        29.74R FOG
6HR MIN TEMP:  35; 6HR MAX TEMP:  49; 6HR PCP:  0.02;

SAINT CLOUD    CLOUDY    42  38  85 NW16G24   29.65R
6HR MIN TEMP:  43; 6HR MAX TEMP:  55;

MINNEAPOLIS    MOCLDY    50  43  77 NW9       29.59R
6HR MIN TEMP:  50; 6HR MAX TEMP:  59;

$$

  *****  WEATHER ACROSS SOUTH DAKOTA  *****

CITY           SKY/WX    TMP DP  RH WIND       PRES   REMARKS
SIOUX FALLS    MOCLDY    48  40  73 NW16G25   29.73R
6HR MIN TEMP:  48; 6HR MAX TEMP:  63;

BROOKINGS      MOCLDY    41  37  86 NW12      29.74R
WATERTOWN      CLOUDY    34  31  88 N15       29.79R WCI  24
6HR MIN TEMP:  35; 6HR MAX TEMP:  53;

HURON          CLOUDY    37  35  92 N20       29.82R
6HR MIN TEMP:  39; 6HR MAX TEMP:  54;

SISSETON         N/A     33  32  96 N20       29.80R WCI  21
ABERDEEN       CLOUDY    33  28  81 N18       29.86R WCI  22
6HR MIN TEMP:  33; 6HR MAX TEMP:  45; 6HR PCP:  0.01;

MITCHELL       FAIR      50  40  68 N14       29.76R
PIERRE         MOCLDY    37  32  82 N16G26    29.83R
6HR MIN TEMP:  38; 6HR MAX TEMP:  55;

MOBRIDGE       CLOUDY    35  29  78 N15       29.86R
RAPID CITY     FAIR      39  29  67 N29G39    29.82R
6HR MIN TEMP:  39; 6HR MAX TEMP:  57;

$$

  *****  SOME WEATHER IN NEARBY STATES *****

CITY           SKY/WX    TMP DP  RH WIND       PRES   REMARKS
GLASGOW MT     FAIR      31  27  85 SW6       29.97R
6HR MIN TEMP:  30; 6HR MAX TEMP:  33;

GREAT FALLS MT CLOUDY    35  25  66 N10       29.91R
6HR MIN TEMP:  35; 6HR MAX TEMP:  39;

CHEYENNE WY    CLOUDY    39  19  44 N12G20    29.79S
6HR MIN TEMP:  39; 6HR MAX TEMP:  45; 6HR PCP: TRACE;

SCOTTSBLUFF NE CLOUDY    52  16  24 NW8       29.79R
6HR MIN TEMP:  52; 6HR MAX TEMP:  57;

OMAHA NE       FAIR      64  38  38 NW16      29.69R
6HR MIN TEMP:  64; 6HR MAX TEMP:  75;

DES MOINES IA  FAIR      67  42  40 NW10      29.64R
6HR MIN TEMP:  66; 6HR MAX TEMP:  72;

DAVENPORT IA   FAIR      65  48  54 S17G25    29.58R
6HR MIN TEMP:  65; 6HR MAX TEMP:  72;

CHICAGO IL     FAIR      65  53  65 S16G26    29.60F
6HR MIN TEMP:  61; 6HR MAX TEMP:  68;

EAU CLAIRE WI  FAIR      52  41  66 NW5       29.54S
6HR MIN TEMP:  51; 6HR MAX TEMP:  57;

LA CROSSE WI   FAIR      54  42  64 W7        29.56R
6HR MIN TEMP:  54; 6HR MAX TEMP:  63;

$$

  *****  SOME NATIONAL WEATHER *****

CITY           SKY/WX    TMP DP  RH WIND       PRES   REMARKS
LA GUARDIA NY  MOCLDY    52  43  71 S10       29.91R
6HR MIN TEMP:  52; 6HR MAX TEMP:  59;


USA.gov is the U.S. government's official web portal to all federal, state and local government web resources and services.